Regional Weather Roundup
Issued by NWS Kansas City/Pleasant Hill, MO

Home | Current Version | Previous Version | Text Only | Print | Product List | Glossary On
Versions: 1 2 3 4 5 6 7 8 9 10 11 12 13 14 15 16 17 18 19 20 21 22 23 24 25 26 27 28 29 30 31 32 33 34 35 36 37 38 39 40 41 42 43 44 45 46 47 48 49 50
000
ASUS43 KEAX 200810
RWREAX

WEATHER ROUNDUP FOR EASTERN KANSAS AND NORTHWEST MISSOURI
NATIONAL WEATHER SERVICE KANSAS CITY/PLEASANT HILL MO
200 AM CST FRI JAN 20 2017

KSZ040-057-103>105-MOZ028-029-037-043-200900-
...KANSAS CITY METROPOLITAN AREA...

CITY           SKY/WX    TMP DP  RH WIND       PRES   REMARKS
K.C. INTL      CLOUDY    45  43  93 E3        29.60S FOG
K.C. DOWNTOWN  CLOUDY    47  46  97 NE6       29.59F FOG
LEES SUMMIT    CLOUDY    46  46 100 NE6       29.60F FOG
OLATHE - IXD   CLOUDY    45  45 100 E6        29.59F FOG
OLATHE - OJC   FOG       45  45 100 SE3       29.59S VSB 1
LAWRENCE       FOG       44  44 100 E5        29.60S VSB 1/4

$$

MOZ001>008-011>017-020>025-030>033-038>040-044>046-053-054-200900-
...NORTHERN AND CENTRAL MISSOURI...

CITY           SKY/WX    TMP DP  RH WIND       PRES   REMARKS
ST. JOSEPH     CLOUDY    42  42 100 CALM      29.61S FOG
MOSBY          CLOUDY    45  45 100 CALM      29.61S FOG
WARRENSBURG    FOG       45  45 100 E3        29.62R VSB 1/4
WHITEMAN AFB   FOG       46  46 100 SW3       29.61R VSB 3/4
CLINTON        LGT RAIN  46  46 100 CALM      29.62S VSB 1/2
SEDALIA        FOG       47  47 100 CALM      29.63R VSB 1/2
WARSAW         NOT AVBL
CHILLICOTHE      N/A     44  43  96 CALM      29.63S
KIRKSVILLE     FOG       40  40 100 CALM      29.62S VSB 1/4

$$

MOZ041-047>049-056>058-063>065-088>090-097-200900-
...EASTERN AND SOUTHERN MISSOURI...

CITY           SKY/WX    TMP DP  RH WIND       PRES   REMARKS
ST. LOUIS INTL FOG       47  45  93 CALM      29.62R VSB 1/4
SPIRIT OF STL  CLOUDY    46  46 100 SW3       29.64R FOG
COLUMBIA       FOG       45  45 100 CALM      29.60F VSB 1/4
JEFFERSON CITY FOG       46  46 100 CALM      29.61F VSB 3/4
ROLLA          CLOUDY    48  48 100 S7        29.60S
OSAGE BEACH    LGT RAIN  48  48 100 S3        29.62R VSB 1/2
SPRINGFIELD    CLOUDY    47  46  97 SE5       29.61S FOG
BRANSON        FOG       37  37 100 CALM      29.63S VSB<1/4
JOPLIN         CLOUDY    50  48  93 SE3       29.60F
WEST PLAINS    CLOUDY    49  48  97 SW7       29.66R

$$

IAZ060-094-KSZ022-034>040-054-083-096-NEZ052-066-093-200900-
...KANSAS...SOUTHEAST NEBRASKA AND IOWA...

CITY           SKY/WX    TMP DP  RH WIND       PRES   REMARKS
TOPEKA         FOG       45  43  93 E3        29.59S VSB 1/4
MANHATTAN      FOG       44  43  96 NE5       29.57F VSB 1/4
EMPORIA        FOG       42  42 100 NE3       29.56F VSB 3/4
CHANUTE        CLOUDY    49  45  86 SE7       29.57F
WICHITA        CLOUDY    44  44 100 E7        29.53R FOG
OMAHA          FOG       37  34  89 N3        29.60S VSB 1/4
LINCOLN        FOG       39  38  96 CALM      29.60S VSB 1/2
FALLS CITY     FOG       41  41 100 E3        29.59S VSB 1/2
LAMONI         FOG       38  37  97 NE3       29.60F VSB 3/4
DES MOINES     DRZL/FOG  37  36  96 SE3       29.61S VSB 1/2

$$




USA.gov is the U.S. government's official web portal to all federal, state and local government web resources and services.